Location: Newark
(44.9486°N, 4.8961°E)
Time: 20:46:27
(UTC+00:00)

ISS - Pass Details

Date: 30 July 2019
Orbit: 410 x 421 km, 51.6° (Epoch: 25 August)

Event Time Altitude Azimuth Distance (km) Brightness Sun altitude
Rises 20:37:14 0° 300° (WNW) 2,375 1.7 -13.4°
Reaches altitude 10° 20:39:22 10° 305° (NW) 1,507 0.5 -13.6°
Maximum altitude 20:42:41 52° 23° (NNE) 531 -3.1 -14.1°
Enters shadow 20:44:39 21° 93° (E) 987 -2.3 -14.3°
